ONEWEB-0193 (48238 NORAD) Tracking and Keplerian Element Data

This shows tracking and keplerian element data for the satellite.

Feedback or suggestion? Click here.




ElementValue
Catalog48238
NameONEWEB-0193
Epoch Orbit185
Epoch Day170.58334491
Epoch Year2021
RAAN295.019
Inclination87.5618
Eccentricity0.0010619
Argument of Perigee66.6384
Mean Anonmoly32.4811
Mean Motion14.49266177
Decay Rate-0.0097861
L11 48238U 21031AE 21170.58334491 -.00978610 00000-0 -27451+0 0 9991
L22 48238 87.5618 295.0190 0010619 66.6384 32.4811 14.49266177 1858

Live tracking and technical data element details for ONEWEB-0193 (NORAD 48238). ONEWEB-0193 can be tracked NOW for your location showing map with azimuth and elevation plus other details from your city location.

Track the satellite on the map from your city or location and see movement details for azimuth, elevation, latitude, longitude, range, height, and movement on the map or in text.







IsCatalogInMostPopularTable: catalog: 48238, numindb: 21
Update: records affected: 1



GetName: 48238 ONEWEB-0193

Hit Count: updated at: Mon, 21 Jun 2021 03:07:36 GMT